Regional Weather Roundup
Issued by NWS Charleston, SC

Current Version | Previous Version | Graphics & Text | Print | Product List | Glossary On
Versions: 1 2 3 4 5 6 7 8 9 10 11 12 13 14 15 16 17 18 19 20 21 22 23 24 25 26 27 28 29 30 31 32 33 34 35 36 37 38 39 40 41 42 43 44 45 46 47 48 49 50
000
ASUS42 KCHS 111028
RWRCHS

REGIONAL WEATHER ROUNDUP
NATIONAL WEATHER SERVICE CHARLESTON SC
500 AM EST THU FEB 11 2016

NOTE: "FAIR" INDICATES FEW OR NO CLOUDS BELOW 12,000 FEET WITH NO
SIGNIFICANT WEATHER AND/OR OBSTRUCTIONS TO VISIBILITY.

NOT ALL STATIONS ARE QUALITY CONTROLLED BY THE NATIONAL
WEATHER SERVICE. USE DATA WITH CAUTION...ESPECIALLY
DEWPOINT OBSERVATIONS.

SCZ027-030-031-034>040-042>050-111100-
...SOUTHEAST SOUTH CAROLINA...

CITY           SKY/WX    TMP DP  RH WIND       PRES   REMARKS
N CHARLESTON   CLEAR     31  16  54 NW5       30.19R WCI  26
WATERFRONT PRK   N/A     34  18  52 W5        30.02S WCI  30
MOUNT PLEASANT FAIR      32  19  59 CALM      30.20R
JOHNS ISLAND   FAIR      32  16  51 W5        30.21R WCI  27
PINOPOLIS        N/A     34  18  51 W9        30.10R WCI  26
MONCKS CORNER  FAIR      25  18  74 CALM      30.19R
SUMMERVILLE    FAIR      30  21  69 W3        30.20R
BEAUFORT MCAS  CLEAR     31  20  63 SW9       30.23R WCI  23
BEAUFORT ARPT  FAIR      34  21  60 SW8       30.22R WCI  27
HILTON HEAD IS CLEAR     34  23  64 SW3       30.25R
WALTERBORO     MOSUNNY   30  21  69 NW3       30.21R
ALLENDALE      FAIR      28  21  74 CALM      30.20R

...SOUTHERN MIDLANDS AND PEE DEE...

CITY           SKY/WX    TMP DP  RH WIND       PRES   REMARKS
GEORGETOWN     FAIR      30  18  59 W3        30.19S
KINGSTREE      FAIR      25  19  80 CALM      30.19R
ORANGEBURG     CLEAR     30  13  49 NW5       30.17S WCI  25
BARNWELL       FAIR      32  18  55 CALM      30.19R
AIKEN          FAIR      28  14  54 CALM      30.19F
MANNING        FAIR      28  18  64 CALM      30.18S
COLUMBIA       CLEAR     30  13  49 CALM      30.18R
SUMTER         CLEAR     28  14  54 W7        30.15R WCI  21
FLORENCE       PTCLDY    27  14  58 NW3       30.17R
MYRTLE BEACH   CLEAR     30  12  47 NW7       30.20R WCI  23
N MYRTLE BEACH CLEAR     29  17  61 W3        30.16R

$$

GAZ063-065-086>088-099>101-113>116-118-119-134>141-150-111100-
...SOUTHEAST GEORGIA...

CITY           SKY/WX    TMP DP  RH WIND       PRES   REMARKS
SAVANNAH ARPT  PTCLDY    30  20  66 W5        30.24R WCI  25
HUNTER AAF     CLEAR     31  20  62 SW7       30.22R WCI  25
FORT STEWART   PTCLDY    29  22  75 CALM      30.22R
STATESBORO     CLEAR     31  22  70 CALM      30.22R
SYLVANIA       MOSUNNY   29  26  86 CALM      30.22R
CLAXTON        FAIR      29  26  89 CALM      30.23S

...CSRA...CENTRAL AND FAR SOUTHEAST GEORGIA...

CITY           SKY/WX    TMP DP  RH WIND       PRES   REMARKS
THOMSON        CLEAR     28  20  71 CALM      30.21S
AUGUSTA-BUSH   CLEAR     27  16  63 CALM      30.18F
AUGUSTA-DANIEL NOT AVBL
SWAINSBORO     FAIR      28  25  86 CALM      30.22R
VIDALIA        CLEAR     30  25  80 SW3       30.23R
EASTMAN        FAIR      30  23  74 CALM      30.26R
HAZLEHURST     FAIR      34  23  63 CALM      30.23R
ALMA           PTCLDY    28  25  88 CALM      30.25R
WAYCROSS       PTCLDY    32  28  85 CALM      30.27R
JESUP          FAIR      32  28  86 CALM      30.26R
BAXLEY         FAIR      32  28  86 S5        30.25R WCI  27
BRUNSWICK      CLEAR     34  27  75 CALM      30.27R
SAINT SIMONS   CLEAR     35  25  66 W6        30.26R WCI  30

$$

SCZ027-028-034-036>038-045-046-048>050-GAZ119-141-111100-
...LAKE AND SUPPLEMENTAL COASTAL OBSERVATIONS...

STATION/POSITION TIME  TEMP    WIND        PRES    WAVE   SWELL
                       AIR SEA DIR/SP/G            HT/PER HT/PER/DIR
                 (UTC) (F)     (DEG/KT/KT) (MB)    (FT/S) (FT/S/D)
WINYAH BAY       0900   33     290/  6     1020.0S
LAKE MURRAY      1000   32     290/  8/ 13 1021.0R
ACE BASIN NERRS  0900   32     300/  2     1022.0S
FORT PULASKI     1000   35                   N/A
SAPELO ISLAND    1000   38     250/  5     1024.0S

$$

ANZ835-935-AMZ111-154-330-350-352-354-370-450-454-472-111100-
...C-MAN AND BUOY OBSERVATIONS...

STATION/POSITION TIME  TEMP    WIND        PRES    WAVE   SWELL
                       AIR SEA DIR/SP/G            HT/PER HT/PER/DIR
                 (UTC) (F)     (DEG/KT/KT) (MB)    (FT/S) (FT/S/D)
BUOY 41004       0950   45 63  300/ 25/ 31 1021.1R   8/ 7   2/11
BUOY 41008       0950   44 52  300/ 16/ 17 1024.4R   3/ 4
FOLLY BEACH CMAN 1000   32     270/  3/  5 1022.7R
CAPERS NEARSHORE 0908   38     300/ 16/ 21 1021.3F
FRIPP NEARSHORE  0900   39     270/ 14/ 16 1022.3R


STATION/POSITION TIME  TEMP    WIND        PRES    WAVE   SWELL
                       AIR SEA DIR/SP/G            HT/PER HT/PER/DIR
                 (UTC) (F)     (DEG/KT/KT) (MB)    (FT/S) (FT/S/D)
5E ST. MARYS GA  0921      55                N/A     2/15   2/ 90/15
FRYING PAN BUOY  1000   40 59  290/ 19/ 25 1020.6R
BUOY 41025       0950   35 71  310/ 23/ 29 1018.2R   8/ 7   2/110/13
CAPE LOOKOUT NC  NOT AVBL
BUOY 41002       0950   54 68  290/ 25/ 31   N/A    13/10   8/270/10
BUOY 41010       0920   60 72              1022.6R
ST AUGUSTINE FL  1000   38 54  300/  7/  8 1026.0F


$$



USA.gov is the U.S. government's official web portal to all federal, state and local government web resources and services.